DW9425 Weather Reports


Display with metric or nautical units.
time (UTC)temp
F
wind
direction
speed
MPH
gust
MPH
rain 1hr
in
rain 24hr
in
rain mn
in
humidity
%
barometer
mb
20260504214700 71 243 8.0 21.0 0.00 0.00 0.00 16 1012.9
20260504213059 71 267 8.0 17.0 0.00 0.00 0.00 15 1012.9
20260504211557 70 286 14.0 23.0 0.00 0.00 0.00 15 1013.1
20260504210107 71 314 11.0 26.0 0.00 0.00 0.00 14 1013.5
20260504204652 71 282 12.0 21.0 0.00 0.00 0.00 16 1013.8
20260504203104 71 269 11.0 20.0 0.00 0.00 0.00 15 1014.0
20260504201548 70 236 13.0 25.0 0.00 0.00 0.00 16 1014.1
20260504200047 70 217 9.0 19.0 0.00 0.00 0.00 16 1014.1
20260504194544 69 222 10.0 23.0 0.00 0.00 0.00 17 1014.2
20260504193042 69 247 12.0 24.0 0.00 0.00 0.00 17 1014.5
20260504191543 69 225 14.0 22.0 0.00 0.00 0.00 18 1014.5
20260504190100 68 243 11.0 25.0 0.00 0.00 0.00 19 1014.5
20260504184537 68 266 14.0 25.0 0.00 0.00 0.00 20 1014.7
20260504183035 67 295 9.0 26.0 0.00 0.00 0.00 22 1014.8
20260504181534 67 256 15.0 23.0 0.00 0.00 0.00 22 1015.0
20260504180032 67 256 13.0 20.0 0.00 0.00 0.00 21 1015.1
20260504174528 67 278 11.0 19.0 0.00 0.00 0.00 22 1015.3
20260504173026 66 271 10.0 18.0 0.00 0.00 0.00 23 1015.3
20260504171524 66 217 7.0 12.0 0.00 0.00 0.00 28 1015.3
20260504081558 52 234 1.0 3.0 0.00 0.00 0.00 58 1015.7
20260504044534 55 257 1.0 7.0 0.00 0.00 0.00 49 1016.3
20260504043033 56 236 5.0 9.0 0.00 0.00 0.00 49 1016.1
20260504041532 56 229 7.0 10.0 0.00 0.00 0.00 49 1016.0
20260504040032 56 244 4.0 8.0 0.00 0.00 0.00 49 1016.0
20260504034533 57 223 4.0 10.0 0.00 0.00 0.00 47 1015.8
20260504033035 57 219 7.0 14.0 0.00 0.00 0.00 45 1015.9
20260504031531 57 229 6.0 9.0 0.00 0.00 0.00 34 1015.8
20260504030030 59 242 1.0 4.0 0.00 0.00 0.00 28 1015.5
20260504024529 60 242 4.0 8.0 0.00 0.00 0.00 28 1015.4
20260504023029 60 233 4.0 10.0 0.00 0.00 0.00 26 1015.3
20260504021530 61 236 8.0 12.0 0.00 0.00 0.00 25 1015.2
20260504020030 62 190 4.0 9.0 0.00 0.00 0.00 24 1015.1
20260504014541 64 223 7.0 11.0 0.00 0.00 0.00 23 1015.0
20260504013027 65 233 9.0 16.0 0.00 0.00 0.00 22 1014.9
20260504011526 66 230 7.0 16.0 0.00 0.00 0.00 22 1014.9
20260504010025 66 231 8.0 18.0 0.00 0.00 0.00 22 1015.0
20260504004523 67 221 6.0 13.0 0.00 0.00 0.00 21 1015.1
20260504003022 68 235 7.0 13.0 0.00 0.00 0.00 21 1015.1
20260504001522 68 229 7.0 16.0 0.00 0.00 0.00 21 1015.2
20260504000037 69 250 7.0 15.0 0.00 0.00 0.00 20 1015.2
20260503234517 70 227 8.0 13.0 0.00 0.00 0.00 19 1015.4
20260503233020 70 128 9.0 15.0 0.00 0.00 0.00 19 1015.5
20260503231514 71 199 6.0 16.0 0.00 0.00 0.00 18 1015.7
20260503230013 72 237 4.0 11.0 0.00 0.00 0.00 19 1015.9
20260503224510 73 247 4.0 14.0 0.00 0.00 0.00 18 1016.2
20260503223008 72 236 3.0 17.0 0.00 0.00 0.00 19 1016.3
20260503221506 73 223 7.0 17.0 0.00 0.00 0.00 17 1016.4
20260503220006 73 254 11.0 17.0 0.00 0.00 0.00 17 1016.5